Lander, WY

10:41 PM MDT on May 29, 2017 (GMT -0600)
Hunt

Weather History for KLND - May, 2015

Change the Weather History Date:

Friday, May 8, 2015

  Actual Average Record
Temperature  
Mean Temperature 42 °F 51 °F  
Max Temperature 46 °F 64 °F 82 °F (1987)
Min Temperature 37 °F 38 °F 26 °F (1968)
Degree Days  
Heating Degree Days 23 14  
Month to date heating degree days 106 123  
Since 1 July heating degree days 6588 7377  
Cooling Degree Days 0 0  
Month to date cooling degree days 0 0  
Year to date cooling degree days 0 0  
Moisture  
Dew Point 37 °F    
Average Humidity 85    
Maximum Humidity 100    
Minimum Humidity 70    
Precipitation  
Precipitation 0.38 in 0.08 in 1.71 in (1921)
Month to date precipitation 1.46 0.60  
Year to date precipitation 5.88 4.62  
Snow  
Snow 0.00 in 0.30 in - ()
Month to date snowfall 0.0 2.6  
Since 1 July snowfall 73.1 89.1  
Snow Depth 0.00 in    
Sea Level Pressure  
Sea Level Pressure 29.98 in    
Wind  
Wind Speed 7 mph (NNW)    
Max Wind Speed 12 mph    
Max Gust Speed 15 mph    
Visibility 7 miles    
Events Rain    
T = Trace of Precipitation, MM = Missing Value Source: NWS Daily Summary

Daily Weather History Graph

Daily Weather History Graph

Search for Another Location

Airport or City:

Trip Planner

Search our weather history database for the weather conditions in past years. The results will help you decide how hot, cold, wet, or windy it might be!

Date:

Astronomy

May. 08, 2015 Rise Set
Actual Time 6:00 AM MDT 8:23 PM MDT
Civil Twilight 5:28 AM MDT 8:54 PM MDT
Nautical Twilight 4:49 AM MDT 9:34 PM MDT
Astronomical Twilight 4:05 AM MDT 10:18 PM MDT
Moon No Moon Rise 9:51 AM MDT (5/8)
Length of Visible Light 15h 26m
Length of Day
14h 22m
Waning Gibbous, 78% of the Moon is Illuminated
May 8
Waning Gibbous
May 11
Last Quarter
May 17
New
May 25
First Quarter
Jun 2
Full

Hourly Weather History & Observations

Time (MDT) Temp. Windchill Dew Point Humidity Pressure Visibility Wind Dir Wind Speed Gust Speed Precip Events Conditions
12:53 AM 41.0 °F 36.4 °F 37.9 °F 89% 30.01 in 5.0 mi WSW 6.9 mph - 0.03 in Rain Light Rain
1:35 AM 39.9 °F 35.8 °F 37.9 °F 93% 30.01 in 10.0 mi NW 5.8 mph - 0.02 in Rain Light Rain
1:53 AM 39.9 °F 35.8 °F 37.0 °F 89% 29.99 in 10.0 mi WNW 5.8 mph - 0.02 in   Overcast
2:21 AM 39.9 °F 36.7 °F 37.0 °F 89% 30.00 in 10.0 mi WNW 4.6 mph - N/A   Overcast
2:53 AM 39.9 °F 35.8 °F 37.0 °F 89% 29.98 in 10.0 mi WNW 5.8 mph - N/A   Overcast
3:53 AM 39.2 °F 34.2 °F 37.4 °F 93% 29.99 in 10.0 mi WNW 6.9 mph - N/A   Overcast
4:53 AM 39.9 °F 36.7 °F 37.0 °F 89% 29.97 in 10.0 mi West 4.6 mph - N/A   Overcast
5:53 AM 39.9 °F 35.1 °F 36.0 °F 86% 29.96 in 10.0 mi NW 6.9 mph - N/A   Overcast
6:53 AM 39.9 °F 35.1 °F 35.1 °F 83% 29.98 in 10.0 mi NW 6.9 mph - N/A   Overcast
7:53 AM 39.0 °F 34.8 °F 34.0 °F 82% 30.00 in 4.0 mi West 5.8 mph - 0.02 in Rain Light Rain
8:33 AM 37.9 °F 32.7 °F 35.1 °F 89% 30.01 in 10.0 mi NW 6.9 mph - 0.03 in Rain Light Rain
8:42 AM 39.0 °F 34.8 °F 35.1 °F 86% 30.01 in 10.0 mi WNW 5.8 mph - 0.03 in Rain Light Rain
8:53 AM 39.2 °F 35.0 °F 35.6 °F 87% 30.01 in 10.0 mi NW 5.8 mph - N/A   Overcast
9:45 AM 39.9 °F 35.8 °F 36.0 °F 86% 30.00 in 10.0 mi NNW 5.8 mph - 0.00 in   Overcast
9:53 AM 39.9 °F 35.1 °F 36.0 °F 86% 29.97 in 10.0 mi NNW 6.9 mph - 0.00 in   Overcast
10:09 AM 39.9 °F 35.1 °F 36.0 °F 86% 29.99 in 10.0 mi NNW 6.9 mph - N/A   Mostly Cloudy
10:53 AM 41.0 °F 37.1 °F 36.0 °F 82% 29.97 in 10.0 mi North 5.8 mph - N/A   Overcast
11:06 AM 41.0 °F 37.1 °F 36.0 °F 82% 29.99 in 10.0 mi North 5.8 mph - N/A   Overcast
11:53 AM 42.1 °F 39.2 °F 36.0 °F 79% 29.97 in 10.0 mi Variable 4.6 mph - N/A   Overcast
12:53 PM 44.1 °F 41.5 °F 35.1 °F 71% 29.94 in 10.0 mi North 4.6 mph - N/A   Overcast
1:53 PM 45.0 °F 41.2 °F 36.0 °F 71% 29.92 in 10.0 mi WNW 6.9 mph - N/A   Overcast
2:53 PM 44.6 °F 40.2 °F 37.4 °F 76% 29.95 in 10.0 mi North 8.1 mph - N/A   Overcast
3:53 PM 45.0 °F 41.2 °F 36.0 °F 71% 29.91 in 10.0 mi NNW 6.9 mph - N/A   Overcast
4:53 PM 44.1 °F 39.5 °F 37.9 °F 79% 29.91 in 10.0 mi NNE 8.1 mph - N/A   Overcast
5:53 PM 43.0 °F 38.2 °F 39.0 °F 86% 29.93 in 10.0 mi WNW 8.1 mph - N/A   Overcast
6:00 PM 43.0 °F 38.8 °F 39.0 °F 86% 29.95 in 10.0 mi WNW 6.9 mph - N/A   Overcast
6:26 PM 42.1 °F 37.7 °F 39.9 °F 92% 29.95 in 2.5 mi NW 6.9 mph - 0.00 in Rain Light Rain
6:38 PM 42.1 °F 37.1 °F 39.9 °F 92% 29.96 in 1.8 mi NW 8.1 mph - 0.01 in Rain Light Rain
6:53 PM 42.1 °F 37.1 °F 39.9 °F 92% 29.95 in 1.5 mi NNW 8.1 mph - 0.03 in Rain Light Rain
7:24 PM 41.0 °F 36.4 °F 39.9 °F 96% 29.96 in 2.0 mi North 6.9 mph - 0.02 in Rain Light Rain
7:53 PM 41.0 °F 36.4 °F 39.0 °F 93% 29.97 in 2.0 mi NNW 6.9 mph - 0.03 in Rain Light Rain
8:14 PM 41.0 °F 37.1 °F 39.9 °F 96% 29.99 in 3.0 mi North 5.8 mph - 0.01 in Rain Light Rain
8:53 PM 39.2 °F 33.0 °F 39.2 °F 100% 29.99 in 3.0 mi NNW 9.2 mph - N/A Rain Light Rain
9:15 PM 39.9 °F 35.1 °F 39.0 °F 97% 30.00 in 4.0 mi NNW 6.9 mph - 0.02 in Rain Light Rain
9:53 PM 39.9 °F 35.1 °F 39.0 °F 97% 30.00 in 4.0 mi NNW 6.9 mph - 0.05 in Rain Light Rain
10:45 PM 39.0 °F 32.3 °F 37.0 °F 93% 30.02 in 5.0 mi North 10.4 mph - 0.05 in Rain Light Rain
10:53 PM 39.0 °F 32.8 °F 37.0 °F 93% 30.01 in 5.0 mi North 9.2 mph - 0.06 in Rain Light Rain
11:00 PM 39.0 °F 34.0 °F 37.0 °F 93% 30.02 in 4.0 mi North 6.9 mph - 0.01 in Rain Light Rain
11:46 PM 37.9 °F 34.4 °F 37.0 °F 97% 30.03 in 3.0 mi North 4.6 mph - 0.04 in Rain Light Rain
11:51 PM 39.2 °F 35.9 °F 37.4 °F 93% 30.02 in 3.0 mi NNE 4.6 mph - 0.04 in Rain Light Rain
11:53 PM 39.2 °F 34.2 °F 37.4 °F 93% 30.02 in 3.0 mi NNE 6.9 mph - N/A Rain Light Rain